Regional Weather Roundup
Issued by NWS Grand Forks, ND

Home | Current Version | Previous Version | Text Only | Print | Product List | Glossary On
Versions: 1 2 3 4 5 6 7 8 9 10 11 12 13 14 15 16 17 18 19 20 21 22 23 24 25 26 27 28 29 30 31 32 33 34 35 36 37 38 39 40 41 42 43 44 45 46 47 48 49 50
884
ASUS43 KFGF 140210
RWRFGF
PRAIRIE TO PINES  WEATHER ROUNDUP
NATIONAL WEATHER SERVICE EASTERN NORTH DAKOTA/GRAND FORKS ND
800 PM CST SAT FEB 13 2016

 **SATELLITE DATA USED TO AUGMENT SKY COVER AT AUTOMATED STATIONS**
 *****  WEATHER ACROSS EASTERN NORTH DAKOTA  *****

CITY           SKY/WX    TMP DP  RH WIND       PRES   REMARKS
GRAND FORKS    CLOUDY    13   1  59 SE20      30.14F WCI  -5
GRAND FRKS AFB CLOUDY    13   1  60 S22G28    30.11F WCI  -6
DEVILS LAKE    FLURRIES   9   4  80 SE17      30.01F WCI  -9
FARGO          CLOUDY    15   1  53 SE22G31   30.15F WCI  -3
WAHPETON ARPT  CLOUDY    12   0  57 SE21G31   30.17F WCI  -6
$$

 ***** WEATHER ACROSS CENTRAL AND WESTERN NORTH DAKOTA  *****

CITY           SKY/WX    TMP DP  RH WIND       PRES   REMARKS
BISMARCK       LGT SNOW  18  12  77 SE13      29.91F WCI   5
MINOT          LGT SNOW  17  10  74 SE12      29.85F WCI   4
JAMESTOWN      LGT SNOW  10   5  80 SE18      30.01F WCI  -8
MINOT AFB      LGT SNOW  16  14  93 SE8G16    29.85F VSB 1   WCI   5
GARRISON         N/A     15  12  88 SE15      29.83F WCI   0
WILLISTON      CLOUDY    23  20  88 CALM      29.78S
DICKINSON      CLOUDY    30  26  85 SW13      29.75F WCI  20
HETTINGER      CLOUDY    25  23  92 S3        29.82F
$$

 *****  OTHER AIRPORT OBSERVATIONS IN OUR AREA  *****

CITY           SKY/WX    TMP DP  RH WIND       PRES   REMARKS
WALHALLA       FAIR       9   1  72 SE18G26   30.08F WCI -10
GRAFTON AIRPOR CLOUDY    12   1  62 SE18G26   30.15F WCI  -5
VALLEY CITY AR FLURRIES   9   3  78 SE20G25   30.09F WCI -11
CANDO          NOT AVBL
CAVALIER APRT  CLOUDY    10   0  61 S14G26    30.11F WCI  -5
GWINNER        CLOUDY    14   7  73 CALM      30.09S
SHEYENNE NWR     N/A     10   1  66 SE14      29.95S WCI  -6
ROLLA          LGT SNOW   7   3  85 S18G26    29.94S WCI -12
 ***** THE ABOVE OBSERVATIONS ARE NON NWS ARE NOT QUALITY
       CONTROLLED AND MAY MIS-REPORT RAIN FOR SNOW...
$$

  *****  WEATHER ACROSS NORTHERN MINNESOTA  *****

CITY           SKY/WX    TMP DP  RH WIND       PRES   REMARKS
FLAG ISLAND    CLOUDY     1 -13  51 SE8       30.22F WCI -12
WARROAD        CLOUDY     3 -11  51 SE10      30.20F WCI -12
ROSEAU         CLOUDY     5  -9  51 SE10      30.19F WCI -10
HALLOCK        CLOUDY    12   0  57 SE16      30.14F WCI  -4
THF RVR FALLS  CLOUDY    10  -8  44 SE17      30.17F WCI  -7
BAUDETTE       CLOUDY     1 -15  47 SE10      30.22F WCI -15
WASKISH        CLOUDY     1 -11  55 SE6       30.24F WCI -10
CROOKSTON      CLOUDY    12   1  62 S20       30.18F WCI  -6
GREENBUSH NDAW   N/A      9  -4  56 SE14        N/A  WCI  -8
$$
  *****  WEATHER ACROSS CENTRAL AND WEST MINNESOTA  *****

CITY           SKY/WX    TMP DP  RH WIND       PRES   REMARKS
FOSSTON        CLOUDY     9  -8  47 SE14G21   30.17F WCI  -8
BEMIDJI        CLOUDY     3 -11  51 SE10      30.21F WCI -13
PARK RAPIDS    CLOUDY     6  -7  54 SE14      30.22F WCI -11
ELBOW LAKE     CLOUDY    10   0  62 E21       30.20F WCI  -9
WADENA         CLOUDY     7  -6  56 SE15      30.22F WCI -11
DETROIT LAKES  CLOUDY     9   0  66 SE16G23   30.19F WCI  -9
MOORHEAD       CLOUDY    12   0  57 SE24      30.17F WCI  -8
FERGUS FALLS   CLOUDY    12   0  57 SE22      30.23F WCI  -7
MORRIS MN      CLOUDY    10   1  67 SE24      30.19F WCI -10
STAPLES        CLOUDY     5  -8  56 SE8       30.26S WCI  -8
$$
  *****  WEATHER ELSEWHERE ACROSS MINNESOTA  *****

CITY           SKY/WX    TMP DP  RH WIND       PRES   REMARKS
DULUTH         CLOUDY    -1 -13  56 S5        30.31F WCI -11
INTRNTL FALLS  CLOUDY    -4 -14  62 E7        30.28F WCI -18
ELY            CLOUDY    -9 -15  77 SE5       30.31F WCI -21
CLOQUET        CLOUDY     0 -17  46 CALM      30.32F
WHEATON        CLOUDY    10   3  72 SE30      30.18F WCI -12
BRAINERD       CLOUDY     2 -11  54 SE5       30.29F WCI  -8
HIBBING        CLOUDY    -6 -14  68 SE3       30.29F
ALEXANDRIA     CLOUDY     9  -2  61 SE15      30.22F WCI  -8
SAINT CLOUD    CLOUDY     9  -5  53 SE9       30.32F WCI  -4
MINNEAPOLIS    CLOUDY     6  -7  54 SE9       30.39F WCI  -8
$$

  *****  WEATHER ACROSS SOUTH DAKOTA  *****

CITY           SKY/WX    TMP DP  RH WIND       PRES   REMARKS
SIOUX FALLS    LGT SNOW  11   7  84 S20       30.17F FOG     WCI  -7
BROOKINGS      LGT SNOW   9   4  80 S22G33    30.10F WCI -11
WATERTOWN      FLURRIES  10   3  73 SE24G31   30.04F WCI -10
HURON          CLOUDY    13   8  81 SE22G36   30.03F WCI  -6
SISSETON         N/A     10   3  73 S25G31    30.11F WCI -11
ABERDEEN       CLOUDY    15   9  76 S24G31    30.03S HAZE    WCI  -4
MITCHELL       LGT SNOW  13   9  84 SE31G43   30.04F FOG     WCI  -9
PIERRE         CLOUDY    26  22  84 S6        29.91R WCI  19
MOBRIDGE       LGT SNOW  20  16  84 SE15      29.87R VSB 3/4 WCI   6
RAPID CITY     LGT RAIN  37  34  89 NW30G39   29.86R
$$

  *****  SOME WEATHER IN NEARBY STATES *****

CITY           SKY/WX    TMP DP  RH WIND       PRES   REMARKS
GLASGOW MT     PTCLDY    36  30  79 NW23      29.86R
GREAT FALLS MT CLOUDY    36  22  56 SW14      30.00R
CHEYENNE WY    CLEAR     44  15  31 NW21G32   29.99R
SCOTTSBLUFF NE PTCLDY    40  30  67 N33G43    29.96R
OMAHA NE       CLOUDY    19   3  49 SE16      30.27F WCI   4
DES MOINES IA  LGT SNOW  15   5  64 SE10G18   30.37F WCI   2
DAVENPORT IA   PTCLDY    16  -2  45 E9        30.45F WCI   4
CHICAGO IL     PTCLDY    12  -4  48 NE5       30.48F WCI   4
EAU CLAIRE WI  CLOUDY    -3 -14  59 NE3       30.42F
LA CROSSE WI   CLOUDY     5  -8  55 SE5       30.46F WCI  -4
$$

  *****  SOME NATIONAL WEATHER *****

CITY           SKY/WX    TMP DP  RH WIND       PRES   REMARKS
LA GUARDIA NY  PTCLDY     8  -8  48 NW20G36   30.32R WCI -11
RALEIGH NC     CLEAR     26  -3  28 NW5       30.42R WCI  20
ATLANTA GA     CLEAR     34   5  29 N9        30.38S
NEW ORLEANS LA CLEAR     53  37  54 SE6       30.35R
OKLAHOMA CITY  MOCLDY    50  35  56 SE16      30.07S
ALBUQUERQUE NM PTCLDY    60  13  15 NW7       30.11R
SALT LAKE CITY FOG       29  28  96 NW8       30.32  VSB 1/8 WCI  21
LOS ANGELES CA PTCLDY    56  52  86 SW6       30.03S FOG
BOISE ID       CLOUDY    47  26  44 CALM      30.26R
SEATTLE WA     LGT RAIN  44  41  89 S9        30.09F
$$

*** WEATHER ACROSS MANITOBA...SASKATCHEWAN AND ONTARIO ***
                ***ONTARIO***

CITY           SKY/WX    TMP DP  RH WIND       PRES   REMARKS
GERALDTON      CLEAR    -18 -24  76 W2        30.35F
THUNDER BAY    CLEAR    -11 -17  77 NW3       30.41F
SIOUX LOOKOUT  CLEAR    -15 -20  76 CALM      30.30S
TORONTO        CLEAR     -6 -17  59 N14G21    30.43R WCI -26
BIG TROUT LK   CLEAR     -9 -17  70 S7        30.26F WCI -24
PICKLE LAKE    CLEAR     -8 -15  71 S7        30.27F WCI -22
DRYDEN         CLEAR     -2 -11  65 SE5       30.28S WCI -12
KENORA         MOCLDY    -2 -13  60 SE10      30.22F WCI -19
$$
                *** MANITOBA***

CITY           SKY/WX    TMP DP  RH WIND       PRES   REMARKS
BRANDON        LGT SNOW   7   3  85 S16       29.97F VSB 1   WCI -11
DAUPHIN        CLOUDY     5   0  78 SE12      29.97S WCI -11
ISLAND LAKE    PTCLDY    -2  -9  71 SE7       30.17F WCI -16
PILOT MOUND      N/A      7   3  85 S24G32      N/A  WCI -15
THE PAS        CLOUDY     9  -4  56 S14       29.89F WCI  -8
THOMPSON       PTCLDY     1  -8  66 S7        29.98F WCI -11
WINNIPEG       NOT AVBL
LYNN LAKE      CLOUDY     9   0  66 S9        29.75F WCI  -5
CHURCHILL      PTCLDY     1  -8  66 S16G24    29.97F WCI -18
GILLAM         CLOUDY     1  -9  60 S13G18    30.08F WCI -16
$$
                ***SASKATCHEWAN***

CITY           SKY/WX    TMP DP  RH WIND       PRES   REMARKS
ESTEVAN        FLURRIES  16  12  86 SE9       29.78F WCI   4
KINDERSLEY     FOG       19  18  93 SW3       29.79F VSB 1/2
LLOYDMINSTER   PTCLDY    27  25  93 W13       29.72F WCI  16
PRINCE ALBERT  LGT SNOW  14   9  79 S5        29.78F WCI   6
REGINA         CLOUDY    19  16  86 SE6       29.77R WCI  11
YORKTON        FLURRIES  10   5  79 SE14      29.83F WCI  -5
N. BATTLEFORD  MOCLDY    21  21 100 VRB2      29.78F
LA RONGE       FLURRIES  10   5  79 S9        29.72F WCI  -2
SASKATOON      CLOUDY    18  16  93 W7        29.81F WCI   8
SWIFT CURRENT  CLOUDY    28  28 100 W13       29.80S FOG     WCI  18
$$
NOTE: THESE ARE AUTOMATED STATIONS WITH LIMITED QUALITY CONTROL
      "FAIR" INDICATES FEW OR NO CLOUDS BELOW 12,000 FEET WITH NO
      SIGNIFICANT WEATHER AND/OR OBSTRUCTIONS TO VISIBILITY.
      SKY/WX - SKY CONDITION AND SIGNIFICANT WEATHER.
      TMP - AIR TEMPERATURE.    DP   - DEWPOINT TEMPERATURE.
      RH  - RELATIVE HUMIDITY.  PRES - PRESSURE.
      HX  - HEAT INDEX.         WCI  - WIND CHILL INDEX.
$




USA.gov is the U.S. government's official web portal to all federal, state and local government web resources and services.